Tracking 31027 objects as of 19-Jul-2025
HD Live streaming from Space Station
objects crossing your sky now

STARLINK-31364

Track STARLINK-31364 now!
10-day predictions


NORAD ID: 59463
Int'l Code: 2024-068J
Perigee: 489.4 km
Apogee: 491.0 km
Inclination: 43.0 °
Period: 94.3 minutes
Semi major axis: 6861 km
RCS: Unknown
Launch date: April 10, 2024
Source: United States (US)
Launch site: AIR FORCE EASTERN TEST RANGE (AFETR)
Your satellite tracking list
Your tracking list is empty




NASA's NSSDC Master Catalog

Two Line Element Set (TLE):
1 59463U 24068J   25199.27104532  .00000073  00000-0  12184-4 0  9997
2 59463  43.0034 274.7443 0001104 256.3778 103.6950 15.27576574 72718
Source of the keplerian elements: AFSPC